Regional Weather Roundup
Issued by NWS

Home | Current Version | Previous Version | Text Only | Print | Product List | Glossary Off
Versions: 1 2 3 4 5 6 7 8 9 10 11 12 13 14 15 16 17 18 19 20 21 22 23 24 25 26 27 28 29 30 31 32 33 34 35 36 37 38 39 40 41 42 43 44 45 46 47 48 49 50

000
ASUS44 KMEG 251310
RWRTN
TENNESSEE HOURLY STATE WEATHER ROUNDUP
NATIONAL WEATHER SERVICE MEMPHIS TN
700 AM CST THU DEC 25 2014

TNZ002-004-019-021-049-052-054-088>092-251400-
WEST TENNESSEE

CITY           SKY/WX    TMP DP  RH WIND       PRES   REMARKS
MEMPHIS INTL   CLEAR     34  31  88 S9        30.13R WCI  27
NWS MEMPHIS      N/A     34 N/A N/A MISG        N/A
JACKSON        CLOUDY    38  32  79 SW5       30.12R WCI  34
DYERSBURG      CLEAR     37  23  56 CALM      30.13R
UNION CITY     PTCLDY    30  30 100 S6        30.10R WCI  24
PARIS          CLOUDY    36  30  80 SW3       30.11R
HUNTINGDON     CLOUDY    36  33  88 S3        30.12R
LEXINGTON      CLOUDY    36  36 100 CALM      30.12R
SAVANNAH       CLOUDY    39  37  93 CALM      30.14R
$$

TNZ008-025-027-028-033-062-065-066-251400-
NORTH MIDDLE TENNESSEE

CITY           SKY/WX    TMP DP  RH WIND       PRES   REMARKS
NASHVILLE      CLOUDY    40  34  79 SW3       30.14R
CLARKSVILLE    CLOUDY    39  34  82 SW6       30.12R WCI  35
SMYRNA         CLOUDY    40  35  82 SW5       30.16R
COOKEVILLE     CLOUDY    39  37  93 CALM      30.12R
CROSSVILLE     CLOUDY    36  32  85 W7        30.10R WCI  30
$$

TNZ061-075-076-078-094-096-097-251400-
SOUTH MIDDLE TENNESSEE

CITY           SKY/WX    TMP DP  RH WIND       PRES   REMARKS
FAYETTEVILLE   PTCLDY    36  30  80 MISG      30.14R
TULLAHOMA      CLOUDY    37  32  81 W7        30.14R WCI  32
WINCHESTER     CLOUDY    39  34  81 W5        30.15R
MCMINNVILLE    CLOUDY    37  37 100 CALM      30.14R
COLUMBIA       CLOUDY   N/A N/A N/A SW5       30.12R
SHELBYVILLE    CLOUDY    39  36  87 W6        30.15R WCI  35
$$

TNZ017-018-042-046-047-251400-
NORTHEAST TENNESSEE

CITY           SKY/WX    TMP DP  RH WIND       PRES   REMARKS
TRI CITIES     MOCLDY    40  31  70 SW8       30.08R WCI  34
ELIZABETHTON   CLOUDY    37  30  75 W9        30.07R WCI  31
$$

TNZ012-013-036-069-073-074-251400-
CENTRAL EAST TENNESSEE

CITY           SKY/WX    TMP DP  RH WIND       PRES   REMARKS
KNOXVILLE      LGT RAIN  40  35  83 W7        30.13R
OAK RIDGE      CLOUDY    40  35  83 SW3       30.13R
GATLINBURG     CLOUDY    39  30  70 SW5       30.11R
MORRISTOWN     CLOUDY    37  36  93 SW5       30.11R WCI  34
$$

TNZ083-085-099-251400-
SOUTHEAST TENNESSEE

CITY           SKY/WX    TMP DP  RH WIND       PRES   REMARKS
CHATTANOOGA    MOCLDY    43  31  62 W7        30.15R
$$

SKY/WX REPORTED AS FAIR MEANS FEW OR NO CLOUDS BELOW
12 THOUSAND FEET.




USA.gov is the U.S. government's official web portal to all federal, state and local government web resources and services.